Time,TemperatureF,DewpointF,PressureIn,WindDirection,WindDirectionDegrees,WindSpeedMPH,WindSpeedGustMPH,Humidity,HourlyPrecipIn,Conditions,Clouds,dailyrainin,SoftwareType,DateUTC
2013-09-16 00:01:00,56.9,55.8,30.12,SE,133,3.0,5.0,96,0.00,,,0.00,Wunderground v.1.15,2013-09-16 04:01:00,
2013-09-16 00:02:00,56.9,55.8,30.12,NE,36,2.0,5.0,96,0.00,,,0.00,Wunderground v.1.15,2013-09-16 04:02:00,
2013-09-16 00:03:00,56.9,55.8,30.12,NE,41,2.0,5.0,96,0.00,,,0.00,Wunderground v.1.15,2013-09-16 04:03:00,
2013-09-16 00:06:00,56.9,55.8,30.12,West,268,2.0,5.0,96,0.00,,,0.01,Wunderground v.1.15,2013-09-16 04:06:00,
2013-09-16 00:07:00,56.9,55.8,30.12,East,90,2.0,5.0,96,0.00,,,0.01,Wunderground v.1.15,2013-09-16 04:07:00,
2013-09-16 00:13:00,56.8,55.7,30.12,East,95,2.0,5.0,96,0.00,,,0.01,Wunderground v.1.15,2013-09-16 04:13:00,
2013-09-16 00:19:00,56.8,55.7,30.12,NNE,18,2.0,5.0,96,0.00,,,0.01,Wunderground v.1.15,2013-09-16 04:19:00,
2013-09-16 00:24:00,56.8,55.7,30.12,NE,39,1.0,5.0,96,0.00,,,0.01,Wunderground v.1.15,2013-09-16 04:24:00,
2013-09-16 00:29:00,56.8,55.7,30.12,NE,44,1.0,5.0,96,0.00,,,0.01,Wunderground v.1.15,2013-09-16 04:29:00,
2013-09-16 00:35:00,56.7,55.6,30.12,South,174,1.0,5.0,96,0.00,,,0.01,Wunderground v.1.15,2013-09-16 04:35:00,
2013-09-16 00:41:00,56.7,55.6,30.12,SSE,160,2.0,5.0,96,0.00,,,0.01,Wunderground v.1.15,2013-09-16 04:41:00,
2013-09-16 00:47:00,56.6,55.5,30.12,SE,129,2.0,7.0,96,0.00,,,0.01,Wunderground v.1.15,2013-09-16 04:47:00,
2013-09-16 00:53:00,56.4,55.3,30.13,SW,235,2.0,5.0,96,0.00,,,0.01,Wunderground v.1.15,2013-09-16 04:53:00,
2013-09-16 00:59:00,56.3,55.2,30.13,ESE,117,3.0,5.0,96,0.00,,,0.01,Wunderground v.1.15,2013-09-16 04:59:00,
2013-09-16 01:04:00,56.2,55.1,30.13,SSE,154,3.0,7.0,96,0.00,,,0.01,Wunderground v.1.15,2013-09-16 05:04:00,
2013-09-16 01:10:00,56.2,55.1,30.13,NE,34,2.0,2.0,96,0.00,,,0.01,Wunderground v.1.15,2013-09-16 05:10:00,
2013-09-16 01:16:00,56.1,55.0,30.13,ESE,120,2.0,5.0,96,0.00,,,0.01,Wunderground v.1.15,2013-09-16 05:16:00,
2013-09-16 01:22:00,56.1,55.0,30.13,ENE,73,2.0,5.0,96,0.00,,,0.01,Wunderground v.1.15,2013-09-16 05:22:00,
2013-09-16 01:27:00,56.2,55.4,30.13,NW,317,1.0,5.0,97,0.00,,,0.01,Wunderground v.1.15,2013-09-16 05:27:00,
2013-09-16 01:33:00,56.2,55.4,30.13,SE,136,1.0,5.0,97,0.00,,,0.01,Wunderground v.1.15,2013-09-16 05:33:00,
2013-09-16 01:39:00,56.3,55.5,30.13,ENE,73,1.0,5.0,97,0.00,,,0.01,Wunderground v.1.15,2013-09-16 05:39:00,
2013-09-16 01:44:00,56.3,55.5,30.13,ESE,112,2.0,5.0,97,0.00,,,0.01,Wunderground v.1.15,2013-09-16 05:44:00,
2013-09-16 01:50:00,56.3,55.5,30.13,SE,127,1.0,1.0,97,0.00,,,0.01,Wunderground v.1.15,2013-09-16 05:50:00,
2013-09-16 01:56:00,56.3,55.5,30.14,SE,124,0.0,5.0,97,0.00,,,0.01,Wunderground v.1.15,2013-09-16 05:56:00,
2013-09-16 02:02:00,56.3,55.5,30.14,SE,136,0.0,5.0,97,0.00,,,0.01,Wunderground v.1.15,2013-09-16 06:02:00,
2013-09-16 02:08:00,56.3,55.5,30.14,SE,134,1.0,5.0,97,0.00,,,0.01,Wunderground v.1.15,2013-09-16 06:08:00,
2013-09-16 02:14:00,56.3,55.5,30.14,SE,139,1.0,5.0,97,0.00,,,0.01,Wunderground v.1.15,2013-09-16 06:14:00,
2013-09-16 02:19:00,56.2,55.4,30.15,East,100,0.0,5.0,97,0.00,,,0.01,Wunderground v.1.15,2013-09-16 06:19:00,
2013-09-16 02:25:00,56.2,55.4,30.15,ESE,117,0.0,5.0,97,0.00,,,0.01,Wunderground v.1.15,2013-09-16 06:25:00,
2013-09-16 02:31:00,56.2,55.4,30.15,SE,127,1.0,5.0,97,0.00,,,0.01,Wunderground v.1.15,2013-09-16 06:31:00,
2013-09-16 02:37:00,56.1,55.3,30.15,ESE,108,1.0,5.0,97,0.00,,,0.01,Wunderground v.1.15,2013-09-16 06:37:00,
2013-09-16 02:43:00,56.1,55.3,30.15,SE,125,0.0,5.0,97,0.00,,,0.01,Wunderground v.1.15,2013-09-16 06:43:00,
2013-09-16 02:49:00,56.1,55.3,30.15,ESE,113,0.0,5.0,97,0.00,,,0.01,Wunderground v.1.15,2013-09-16 06:49:00,
2013-09-16 02:55:00,56.1,55.3,30.15,East,91,0.0,5.0,97,0.00,,,0.01,Wunderground v.1.15,2013-09-16 06:55:00,
2013-09-16 03:00:00,56.1,55.3,30.16,NNE,20,0.0,5.0,97,0.00,,,0.01,Wunderground v.1.15,2013-09-16 07:00:00,
2013-09-16 03:06:00,56.2,55.4,30.16,NNE,18,1.0,5.0,97,0.00,,,0.01,Wunderground v.1.15,2013-09-16 07:06:00,
2013-09-16 03:12:00,56.2,55.4,30.16,NNE,20,3.0,5.0,97,0.00,,,0.01,Wunderground v.1.15,2013-09-16 07:12:00,
2013-09-16 03:18:00,56.2,55.4,30.16,North,350,3.0,5.0,97,0.00,,,0.01,Wunderground v.1.15,2013-09-16 07:18:00,
2013-09-16 03:23:00,56.1,55.3,30.16,NNE,27,4.0,5.0,97,0.00,,,0.01,Wunderground v.1.15,2013-09-16 07:23:00,
2013-09-16 03:29:00,56.1,55.3,30.16,NNE,26,4.0,6.0,97,0.00,,,0.01,Wunderground v.1.15,2013-09-16 07:29:00,
2013-09-16 03:35:00,56.0,55.2,30.16,NNE,19,4.0,6.0,97,0.00,,,0.01,Wunderground v.1.15,2013-09-16 07:35:00,
2013-09-16 03:40:00,56.0,55.2,30.16,NNE,20,4.0,4.0,97,0.00,,,0.01,Wunderground v.1.15,2013-09-16 07:40:00,
2013-09-16 03:46:00,56.0,55.2,30.16,NNE,16,4.0,5.0,97,0.00,,,0.01,Wunderground v.1.15,2013-09-16 07:46:00,
2013-09-16 03:52:00,56.0,55.2,30.16,NNE,13,3.0,5.0,97,0.00,,,0.01,Wunderground v.1.15,2013-09-16 07:52:00,
2013-09-16 03:58:00,56.0,55.2,30.16,NNE,21,4.0,5.0,97,0.00,,,0.01,Wunderground v.1.15,2013-09-16 07:58:00,
2013-09-16 04:03:00,56.0,55.2,30.17,North,349,4.0,5.0,97,0.00,,,0.01,Wunderground v.1.15,2013-09-16 08:03:00,
2013-09-16 04:09:00,56.1,55.3,30.17,North,11,3.0,5.0,97,0.00,,,0.01,Wunderground v.1.15,2013-09-16 08:09:00,
2013-09-16 04:15:00,56.1,55.3,30.17,NNE,20,3.0,7.0,97,0.00,,,0.01,Wunderground v.1.15,2013-09-16 08:15:00,
2013-09-16 04:21:00,56.1,55.3,30.17,NNE,25,4.0,5.0,97,0.00,,,0.01,Wunderground v.1.15,2013-09-16 08:21:00,
2013-09-16 04:27:00,56.1,55.3,30.17,NNE,33,4.0,6.0,97,0.00,,,0.01,Wunderground v.1.15,2013-09-16 08:27:00,
2013-09-16 04:33:00,56.0,55.2,30.17,NE,49,5.0,8.0,97,0.00,,,0.01,Wunderground v.1.15,2013-09-16 08:33:00,
2013-09-16 04:39:00,56.1,55.3,30.17,North,9,5.0,8.0,97,0.00,,,0.01,Wunderground v.1.15,2013-09-16 08:39:00,
2013-09-16 04:44:00,56.0,55.2,30.17,NNE,18,5.0,6.0,97,0.00,,,0.01,Wunderground v.1.15,2013-09-16 08:44:00,
2013-09-16 04:50:00,56.0,55.2,30.17,North,10,5.0,6.0,97,0.00,,,0.01,Wunderground v.1.15,2013-09-16 08:50:00,
2013-09-16 04:56:00,56.0,55.2,30.18,NNE,23,5.0,7.0,97,0.00,,,0.01,Wunderground v.1.15,2013-09-16 08:56:00,
2013-09-16 05:02:00,55.9,55.1,30.18,NNE,33,5.0,7.0,97,0.00,,,0.01,Wunderground v.1.15,2013-09-16 09:02:00,
2013-09-16 05:08:00,55.9,55.1,30.18,NNE,16,5.0,7.0,97,0.00,,,0.01,Wunderground v.1.15,2013-09-16 09:08:00,
2013-09-16 05:14:00,55.8,55.0,30.18,North,11,5.0,7.0,97,0.00,,,0.01,Wunderground v.1.15,2013-09-16 09:14:00,
2013-09-16 05:20:00,55.8,55.0,30.18,NNW,339,4.0,4.0,97,0.00,,,0.01,Wunderground v.1.15,2013-09-16 09:20:00,
2013-09-16 05:26:00,55.8,55.0,30.19,NNE,26,4.0,6.0,97,0.00,,,0.01,Wunderground v.1.15,2013-09-16 09:26:00,
2013-09-16 05:32:00,55.8,55.0,30.19,North,10,3.0,5.0,97,0.00,,,0.01,Wunderground v.1.15,2013-09-16 09:32:00,
2013-09-16 05:38:00,55.8,55.0,30.19,North,8,2.0,5.0,97,0.00,,,0.01,Wunderground v.1.15,2013-09-16 09:38:00,
2013-09-16 05:44:00,55.9,55.1,30.19,NNE,13,2.0,5.0,97,0.00,,,0.01,Wunderground v.1.15,2013-09-16 09:44:00,
2013-09-16 05:49:00,55.9,55.1,30.19,NNE,14,2.0,5.0,97,0.00,,,0.01,Wunderground v.1.15,2013-09-16 09:49:00,
2013-09-16 05:55:00,56.0,55.2,30.19,NNE,32,3.0,6.0,97,0.00,,,0.01,Wunderground v.1.15,2013-09-16 09:55:00,
2013-09-16 06:00:00,55.9,55.1,30.19,NNE,13,3.0,5.0,97,0.00,,,0.01,Wunderground v.1.15,2013-09-16 10:00:00,
2013-09-16 06:06:00,56.0,55.2,30.19,NE,37,3.0,5.0,97,0.00,,,0.01,Wunderground v.1.15,2013-09-16 10:06:00,
2013-09-16 06:12:00,55.9,55.1,30.20,NNE,25,4.0,7.0,97,0.00,,,0.01,Wunderground v.1.15,2013-09-16 10:12:00,
2013-09-16 06:18:00,56.0,55.2,30.20,NNE,33,5.0,7.0,97,0.00,,,0.01,Wunderground v.1.15,2013-09-16 10:18:00,
2013-09-16 06:24:00,56.0,55.2,30.20,North,4,5.0,8.0,97,0.00,,,0.01,Wunderground v.1.15,2013-09-16 10:24:00,
2013-09-16 06:30:00,56.0,55.2,30.20,North,10,5.0,5.0,97,0.00,,,0.01,Wunderground v.1.15,2013-09-16 10:30:00,
2013-09-16 06:35:00,56.0,55.2,30.20,NNW,333,5.0,5.0,97,0.00,,,0.01,Wunderground v.1.15,2013-09-16 10:35:00,
2013-09-16 06:41:00,56.0,55.2,30.21,North,5,4.0,7.0,97,0.00,,,0.01,Wunderground v.1.15,2013-09-16 10:41:00,
2013-09-16 06:47:00,55.9,55.1,30.21,NNE,20,5.0,7.0,97,0.00,,,0.01,Wunderground v.1.15,2013-09-16 10:47:00,
2013-09-16 06:53:00,55.8,55.0,30.21,North,355,5.0,6.0,97,0.00,,,0.01,Wunderground v.1.15,2013-09-16 10:53:00,
2013-09-16 06:59:00,55.7,54.9,30.21,NNE,23,5.0,6.0,97,0.00,,,0.01,Wunderground v.1.15,2013-09-16 10:59:00,
2013-09-16 07:05:00,55.6,54.8,30.22,NNW,335,4.0,5.0,97,0.00,,,0.01,Wunderground v.1.15,2013-09-16 11:05:00,
2013-09-16 07:11:00,55.5,54.7,30.22,NNW,342,5.0,7.0,97,0.00,,,0.01,Wunderground v.1.15,2013-09-16 11:11:00,
2013-09-16 07:17:00,55.3,54.5,30.22,NNE,33,5.0,7.0,97,0.00,,,0.01,Wunderground v.1.15,2013-09-16 11:17:00,
2013-09-16 07:23:00,55.2,54.4,30.22,North,354,4.0,8.0,97,0.00,,,0.01,Wunderground v.1.15,2013-09-16 11:23:00,
2013-09-16 07:29:00,55.2,54.4,30.23,North,4,4.0,8.0,97,0.00,,,0.01,Wunderground v.1.15,2013-09-16 11:29:00,
2013-09-16 07:34:00,55.2,54.4,30.23,North,8,4.0,7.0,97,0.00,,,0.01,Wunderground v.1.15,2013-09-16 11:34:00,
2013-09-16 07:40:00,55.2,54.4,30.23,NNE,20,4.0,5.0,97,0.00,,,0.01,Wunderground v.1.15,2013-09-16 11:40:00,
2013-09-16 07:46:00,55.2,54.4,30.23,North,4,4.0,5.0,97,0.00,,,0.01,Wunderground v.1.15,2013-09-16 11:46:00,
2013-09-16 07:52:00,55.3,54.5,30.23,NNE,15,3.0,5.0,97,0.00,,,0.01,Wunderground v.1.15,2013-09-16 11:52:00,
2013-09-16 07:58:00,55.4,54.6,30.23,NNE,13,4.0,8.0,97,0.00,,,0.01,Wunderground v.1.15,2013-09-16 11:58:00,
2013-09-16 08:04:00,55.5,54.7,30.24,NNW,340,5.0,6.0,97,0.00,,,0.01,Wunderground v.1.15,2013-09-16 12:04:00,
2013-09-16 08:10:00,55.6,54.8,30.24,NNE,20,6.0,6.0,97,0.00,,,0.01,Wunderground v.1.15,2013-09-16 12:10:00,
2013-09-16 08:15:00,55.7,54.9,30.24,NW,308,6.0,6.0,97,0.00,,,0.01,Wunderground v.1.15,2013-09-16 12:15:00,
2013-09-16 08:21:00,55.8,54.7,30.25,NNE,19,5.0,8.0,96,0.00,,,0.01,Wunderground v.1.15,2013-09-16 12:21:00,
2013-09-16 08:27:00,55.8,54.7,30.25,NNE,16,4.0,8.0,96,0.00,,,0.01,Wunderground v.1.15,2013-09-16 12:27:00,
2013-09-16 08:33:00,55.8,54.7,30.25,NNE,28,4.0,5.0,96,0.00,,,0.01,Wunderground v.1.15,2013-09-16 12:33:00,
2013-09-16 08:39:00,55.8,54.7,30.26,NNW,344,4.0,7.0,96,0.00,,,0.01,Wunderground v.1.15,2013-09-16 12:39:00,
2013-09-16 08:45:00,55.8,54.4,30.26,NE,49,4.0,6.0,95,0.00,,,0.01,Wunderground v.1.15,2013-09-16 12:45:00,
2013-09-16 08:51:00,56.0,54.6,30.26,North,5,4.0,8.0,95,0.00,,,0.01,Wunderground v.1.15,2013-09-16 12:51:00,
2013-09-16 08:57:00,56.0,54.3,30.26,NNE,18,6.0,9.0,94,0.00,,,0.01,Wunderground v.1.15,2013-09-16 12:57:00,
2013-09-16 09:03:00,56.1,54.4,30.26,NNW,343,7.0,7.0,94,0.00,,,0.01,Wunderground v.1.15,2013-09-16 13:03:00,
2013-09-16 09:08:00,56.1,54.1,30.26,NNE,30,7.0,9.0,93,0.00,,,0.01,Wunderground v.1.15,2013-09-16 13:08:00,
2013-09-16 09:14:00,56.2,54.2,30.27,NNW,338,6.0,7.0,93,0.00,,,0.01,Wunderground v.1.15,2013-09-16 13:14:00,
2013-09-16 09:20:00,56.2,54.2,30.27,NE,44,6.0,10.0,93,0.00,,,0.01,Wunderground v.1.15,2013-09-16 13:20:00,
2013-09-16 09:26:00,56.3,54.3,30.27,NNE,23,7.0,10.0,93,0.00,,,0.01,Wunderground v.1.15,2013-09-16 13:26:00,
2013-09-16 09:32:00,56.4,54.1,30.27,NNW,342,6.0,7.0,92,0.00,,,0.01,Wunderground v.1.15,2013-09-16 13:32:00,
2013-09-16 09:38:00,56.4,54.1,30.28,NNW,343,6.0,9.0,92,0.00,,,0.01,Wunderground v.1.15,2013-09-16 13:38:00,
2013-09-16 09:44:00,56.4,54.1,30.28,NNE,33,7.0,8.0,92,0.00,,,0.01,Wunderground v.1.15,2013-09-16 13:44:00,
2013-09-16 09:49:00,56.4,54.1,30.28,North,354,6.0,8.0,92,0.00,,,0.01,Wunderground v.1.15,2013-09-16 13:49:00,
2013-09-16 09:55:00,56.4,53.8,30.29,NNE,27,7.0,10.0,91,0.00,,,0.01,Wunderground v.1.15,2013-09-16 13:55:00,
2013-09-16 10:00:00,56.5,53.9,30.29,North,8,7.0,8.0,91,0.00,,,0.01,Wunderground v.1.15,2013-09-16 14:00:00,
2013-09-16 10:06:00,56.7,53.5,30.29,North,9,7.0,12.0,89,0.00,,,0.01,Wunderground v.1.15,2013-09-16 14:06:00,
2013-09-16 10:12:00,56.7,53.5,30.29,NNE,26,8.0,8.0,89,0.00,,,0.01,Wunderground v.1.15,2013-09-16 14:12:00,
2013-09-16 10:18:00,56.7,53.8,30.29,NNE,14,7.0,9.0,90,0.00,,,0.01,Wunderground v.1.15,2013-09-16 14:18:00,
2013-09-16 10:24:00,56.7,54.1,30.29,NNE,23,6.0,8.0,91,0.00,,,0.01,Wunderground v.1.15,2013-09-16 14:24:00,
2013-09-16 10:30:00,56.7,53.8,30.30,NE,37,5.0,5.0,90,0.00,,,0.01,Wunderground v.1.15,2013-09-16 14:30:00,
2013-09-16 10:36:00,56.9,54.3,30.30,NE,53,3.0,5.0,91,0.00,,,0.01,Wunderground v.1.15,2013-09-16 14:36:00,
2013-09-16 10:42:00,57.2,54.3,30.30,NNE,32,3.0,5.0,90,0.00,,,0.01,Wunderground v.1.15,2013-09-16 14:42:00,
2013-09-16 10:48:00,57.4,54.5,30.30,NNE,12,3.0,5.0,90,0.00,,,0.01,Wunderground v.1.15,2013-09-16 14:48:00,
2013-09-16 10:53:00,57.3,54.1,30.30,North,8,3.0,6.0,89,0.00,,,0.01,Wunderground v.1.15,2013-09-16 14:53:00,
2013-09-16 10:58:00,57.1,54.2,30.30,NNE,22,5.0,6.0,90,0.00,,,0.01,Wunderground v.1.15,2013-09-16 14:58:00,
2013-09-16 11:04:00,57.1,53.9,30.31,NNE,20,6.0,7.0,89,0.00,,,0.01,Wunderground v.1.15,2013-09-16 15:04:00,
2013-09-16 11:10:00,57.5,54.3,30.31,North,6,6.0,6.0,89,0.00,,,0.01,Wunderground v.1.15,2013-09-16 15:10:00,
2013-09-16 11:16:00,58.1,54.6,30.31,NE,39,5.0,6.0,88,0.00,,,0.01,Wunderground v.1.15,2013-09-16 15:16:00,
2013-09-16 11:22:00,58.8,54.9,30.31,North,1,4.0,5.0,87,0.00,,,0.01,Wunderground v.1.15,2013-09-16 15:22:00,
2013-09-16 11:28:00,59.0,54.5,30.31,NNE,18,3.0,5.0,85,0.00,,,0.01,Wunderground v.1.15,2013-09-16 15:28:00,
2013-09-16 11:34:00,58.7,54.5,30.31,NNE,30,4.0,8.0,86,0.00,,,0.01,Wunderground v.1.15,2013-09-16 15:34:00,
2013-09-16 11:40:00,58.4,53.9,30.31,North,11,6.0,6.0,85,0.00,,,0.01,Wunderground v.1.15,2013-09-16 15:40:00,
2013-09-16 11:45:00,58.6,54.4,30.31,NNE,15,5.0,6.0,86,0.00,,,0.01,Wunderground v.1.15,2013-09-16 15:45:00,
2013-09-16 11:51:00,59.0,54.5,30.31,NNE,16,3.0,5.0,85,0.00,,,0.01,Wunderground v.1.15,2013-09-16 15:51:00,
2013-09-16 11:57:00,59.5,54.7,30.31,NNE,20,4.0,9.0,84,0.00,,,0.01,Wunderground v.1.15,2013-09-16 15:57:00,
2013-09-16 12:03:00,59.7,54.5,30.31,ENE,58,6.0,8.0,83,0.00,,,0.01,Wunderground v.1.15,2013-09-16 16:03:00,
2013-09-16 12:09:00,60.3,54.4,30.31,NNW,342,4.0,8.0,81,0.00,,,0.01,Wunderground v.1.15,2013-09-16 16:09:00,
2013-09-16 12:15:00,60.5,54.6,30.31,NNE,30,4.0,6.0,81,0.00,,,0.01,Wunderground v.1.15,2013-09-16 16:15:00,
2013-09-16 12:21:00,60.5,54.6,30.31,NNW,335,5.0,8.0,81,0.00,,,0.01,Wunderground v.1.15,2013-09-16 16:21:00,
2013-09-16 12:26:00,60.5,54.3,30.31,NNW,330,5.0,8.0,80,0.00,,,0.01,Wunderground v.1.15,2013-09-16 16:26:00,
2013-09-16 12:32:00,60.9,54.3,30.32,NE,45,5.0,9.0,79,0.00,,,0.01,Wunderground v.1.15,2013-09-16 16:32:00,
2013-09-16 12:38:00,60.9,54.7,30.32,NE,41,5.0,9.0,80,0.00,,,0.01,Wunderground v.1.15,2013-09-16 16:38:00,
2013-09-16 12:44:00,61.1,54.2,30.32,NNE,22,5.0,9.0,78,0.00,,,0.01,Wunderground v.1.15,2013-09-16 16:44:00,
2013-09-16 12:50:00,61.2,54.3,30.32,NNE,32,4.0,4.0,78,0.00,,,0.01,Wunderground v.1.15,2013-09-16 16:50:00,
2013-09-16 12:56:00,61.5,54.9,30.32,East,97,4.0,6.0,79,0.00,,,0.01,Wunderground v.1.15,2013-09-16 16:56:00,
2013-09-16 13:02:00,61.6,54.3,30.32,NE,50,4.0,8.0,77,0.00,,,0.01,Wunderground v.1.15,2013-09-16 17:02:00,
2013-09-16 13:08:00,61.8,54.9,30.32,NE,41,4.0,8.0,78,0.00,,,0.01,Wunderground v.1.15,2013-09-16 17:08:00,
2013-09-16 13:13:00,61.8,54.2,30.32,North,10,3.0,6.0,76,0.00,,,0.01,Wunderground v.1.15,2013-09-16 17:13:00,
2013-09-16 13:19:00,61.9,54.2,30.31,NNE,30,4.0,6.0,76,0.00,,,0.01,Wunderground v.1.15,2013-09-16 17:19:00,
2013-09-16 13:25:00,61.7,54.1,30.32,NE,49,4.0,9.0,76,0.00,,,0.01,Wunderground v.1.15,2013-09-16 17:25:00,
2013-09-16 13:31:00,62.0,54.7,30.32,ESE,123,4.0,5.0,77,0.00,,,0.01,Wunderground v.1.15,2013-09-16 17:31:00,
2013-09-16 13:37:00,62.7,54.7,30.32,West,259,3.0,5.0,75,0.00,,,0.01,Wunderground v.1.15,2013-09-16 17:37:00,
2013-09-16 13:43:00,62.7,55.0,30.32,NE,50,3.0,5.0,76,0.00,,,0.01,Wunderground v.1.15,2013-09-16 17:43:00,
2013-09-16 13:48:00,62.4,54.7,30.32,SE,132,4.0,6.0,76,0.00,,,0.01,Wunderground v.1.15,2013-09-16 17:48:00,
2013-09-16 13:54:00,62.4,54.0,30.32,NE,39,4.0,11.0,74,0.00,,,0.01,Wunderground v.1.15,2013-09-16 17:54:00,
2013-09-16 14:00:00,62.2,53.8,30.32,NE,51,5.0,5.0,74,0.00,,,0.01,Wunderground v.1.15,2013-09-16 18:00:00,
2013-09-16 14:06:00,61.9,53.9,30.32,NNE,23,6.0,10.0,75,0.00,,,0.01,Wunderground v.1.15,2013-09-16 18:06:00,
2013-09-16 14:12:00,61.6,54.0,30.32,NNE,25,8.0,8.0,76,0.00,,,0.01,Wunderground v.1.15,2013-09-16 18:12:00,
2013-09-16 14:17:00,61.6,54.0,30.32,NE,41,7.0,9.0,76,0.00,,,0.01,Wunderground v.1.15,2013-09-16 18:17:00,
2013-09-16 14:23:00,61.5,54.2,30.32,NE,40,6.0,10.0,77,0.00,,,0.01,Wunderground v.1.15,2013-09-16 18:23:00,
2013-09-16 14:29:00,61.3,54.0,30.32,NNE,18,6.0,10.0,77,0.00,,,0.01,Wunderground v.1.15,2013-09-16 18:29:00,
2013-09-16 14:34:00,61.4,54.1,30.32,NNE,25,6.0,8.0,77,0.00,,,0.01,Wunderground v.1.15,2013-09-16 18:34:00,
2013-09-16 14:40:00,61.3,54.0,30.32,NE,34,6.0,7.0,77,0.00,,,0.01,Wunderground v.1.15,2013-09-16 18:40:00,
2013-09-16 14:45:00,61.3,54.4,30.32,NNE,13,6.0,8.0,78,0.00,,,0.01,Wunderground v.1.15,2013-09-16 18:45:00,
2013-09-16 14:51:00,61.3,54.4,30.31,NNE,20,7.0,11.0,78,0.00,,,0.01,Wunderground v.1.15,2013-09-16 18:51:00,
2013-09-16 14:57:00,61.4,54.1,30.32,NNE,13,7.0,11.0,77,0.00,,,0.01,Wunderground v.1.15,2013-09-16 18:57:00,
2013-09-16 15:03:00,61.5,54.2,30.31,NE,37,6.0,8.0,77,0.00,,,0.01,Wunderground v.1.15,2013-09-16 19:03:00,
2013-09-16 15:09:00,61.4,53.8,30.31,NNW,343,6.0,8.0,76,0.00,,,0.01,Wunderground v.1.15,2013-09-16 19:09:00,
2013-09-16 15:15:00,61.4,54.1,30.31,ENE,60,5.0,6.0,77,0.00,,,0.01,Wunderground v.1.15,2013-09-16 19:15:00,
2013-09-16 15:21:00,61.5,53.9,30.31,NNE,26,4.0,5.0,76,0.00,,,0.01,Wunderground v.1.15,2013-09-16 19:21:00,
2013-09-16 15:27:00,61.8,53.8,30.31,NNE,15,4.0,8.0,75,0.00,,,0.01,Wunderground v.1.15,2013-09-16 19:27:00,
2013-09-16 15:33:00,61.9,53.5,30.31,NE,55,5.0,6.0,74,0.00,,,0.01,Wunderground v.1.15,2013-09-16 19:33:00,
2013-09-16 15:39:00,62.1,53.3,30.31,North,3,5.0,7.0,73,0.00,,,0.01,Wunderground v.1.15,2013-09-16 19:39:00,
2013-09-16 15:45:00,62.3,52.8,30.31,NNE,20,5.0,7.0,71,0.00,,,0.01,Wunderground v.1.15,2013-09-16 19:45:00,
2013-09-16 15:50:00,62.4,53.6,30.31,NNE,33,4.0,4.0,73,0.00,,,0.01,Wunderground v.1.15,2013-09-16 19:50:00,
2013-09-16 15:56:00,62.8,54.0,30.30,North,357,4.0,6.0,73,0.00,,,0.01,Wunderground v.1.15,2013-09-16 19:56:00,
2013-09-16 16:02:00,62.5,53.0,30.30,NE,34,6.0,9.0,71,0.00,,,0.01,Wunderground v.1.15,2013-09-16 20:02:00,
2013-09-16 16:08:00,62.3,53.5,30.30,North,349,6.0,9.0,73,0.00,,,0.01,Wunderground v.1.15,2013-09-16 20:08:00,
2013-09-16 16:14:00,62.4,53.6,30.30,NNE,24,5.0,7.0,73,0.00,,,0.01,Wunderground v.1.15,2013-09-16 20:14:00,
2013-09-16 16:19:00,62.5,53.3,30.30,NE,37,5.0,7.0,72,0.00,,,0.01,Wunderground v.1.15,2013-09-16 20:19:00,
2013-09-16 16:24:00,62.4,53.3,30.30,North,349,5.0,7.0,72,0.00,,,0.01,Wunderground v.1.15,2013-09-16 20:24:00,
2013-09-16 16:30:00,62.4,53.3,30.30,NE,53,4.0,5.0,72,0.00,,,0.01,Wunderground v.1.15,2013-09-16 20:30:00,
2013-09-16 16:36:00,62.5,53.3,30.30,North,1,4.0,7.0,72,0.00,,,0.01,Wunderground v.1.15,2013-09-16 20:36:00,
2013-09-16 16:42:00,62.6,53.4,30.30,NNE,25,4.0,6.0,72,0.00,,,0.01,Wunderground v.1.15,2013-09-16 20:42:00,
2013-09-16 16:48:00,62.7,53.5,30.30,NE,50,5.0,7.0,72,0.00,,,0.01,Wunderground v.1.15,2013-09-16 20:48:00,
2013-09-16 16:54:00,62.8,53.3,30.30,NNW,344,4.0,8.0,71,0.00,,,0.01,Wunderground v.1.15,2013-09-16 20:54:00,
2013-09-16 17:00:00,62.9,53.4,30.29,North,10,5.0,5.0,71,0.00,,,0.01,Wunderground v.1.15,2013-09-16 21:00:00,
2013-09-16 17:06:00,62.8,52.9,30.29,NNE,31,6.0,7.0,70,0.00,,,0.01,Wunderground v.1.15,2013-09-16 21:06:00,
2013-09-16 17:12:00,62.6,53.1,30.29,NNW,340,5.0,6.0,71,0.00,,,0.01,Wunderground v.1.15,2013-09-16 21:12:00,
2013-09-16 17:18:00,62.7,53.9,30.29,NE,40,5.0,7.0,73,0.00,,,0.01,Wunderground v.1.15,2013-09-16 21:18:00,
2013-09-16 17:23:00,62.7,53.9,30.29,NNE,20,4.0,5.0,73,0.00,,,0.01,Wunderground v.1.15,2013-09-16 21:23:00,
2013-09-16 17:29:00,62.5,53.0,30.29,NNE,18,5.0,11.0,71,0.00,,,0.01,Wunderground v.1.15,2013-09-16 21:29:00,
2013-09-16 17:35:00,62.3,52.8,30.29,North,8,7.0,8.0,71,0.00,,,0.01,Wunderground v.1.15,2013-09-16 21:35:00,
2013-09-16 17:41:00,62.3,52.4,30.29,NNE,26,5.0,5.0,70,0.00,,,0.01,Wunderground v.1.15,2013-09-16 21:41:00,
2013-09-16 17:46:00,62.4,52.5,30.29,NNW,337,4.0,7.0,70,0.00,,,0.01,Wunderground v.1.15,2013-09-16 21:46:00,
2013-09-16 17:52:00,62.4,52.9,30.30,NNE,25,4.0,5.0,71,0.00,,,0.01,Wunderground v.1.15,2013-09-16 21:52:00,
2013-09-16 17:58:00,62.8,52.9,30.30,NNE,20,4.0,5.0,70,0.00,,,0.01,Wunderground v.1.15,2013-09-16 21:58:00,
2013-09-16 18:04:00,63.4,52.7,30.29,North,10,2.0,5.0,68,0.00,,,0.01,Wunderground v.1.15,2013-09-16 22:04:00,
2013-09-16 18:10:00,63.9,52.3,30.29,NNE,22,2.0,2.0,66,0.00,,,0.01,Wunderground v.1.15,2013-09-16 22:10:00,
2013-09-16 18:16:00,64.3,53.5,30.30,NE,48,2.0,6.0,68,0.00,,,0.01,Wunderground v.1.15,2013-09-16 22:16:00,
2013-09-16 18:22:00,63.6,52.8,30.30,NE,44,4.0,5.0,68,0.00,,,0.01,Wunderground v.1.15,2013-09-16 22:22:00,
2013-09-16 18:27:00,62.7,52.8,30.30,NNE,33,4.0,5.0,70,0.00,,,0.01,Wunderground v.1.15,2013-09-16 22:27:00,
2013-09-16 18:33:00,62.3,53.2,30.30,NNE,27,2.0,5.0,72,0.00,,,0.01,Wunderground v.1.15,2013-09-16 22:33:00,
2013-09-16 18:39:00,62.8,53.6,30.30,SE,136,1.0,5.0,72,0.00,,,0.01,Wunderground v.1.15,2013-09-16 22:39:00,
2013-09-16 18:45:00,63.6,53.6,30.30,NNE,12,0.0,5.0,70,0.00,,,0.01,Wunderground v.1.15,2013-09-16 22:45:00,
2013-09-16 18:51:00,64.2,54.2,30.30,SE,130,0.0,5.0,70,0.00,,,0.01,Wunderground v.1.15,2013-09-16 22:51:00,
2013-09-16 18:57:00,64.0,53.6,30.30,SE,128,1.0,5.0,69,0.00,,,0.01,Wunderground v.1.15,2013-09-16 22:57:00,
2013-09-16 19:03:00,63.9,53.1,30.30,SE,140,1.0,5.0,68,0.00,,,0.01,Wunderground v.1.15,2013-09-16 23:03:00,
2013-09-16 19:08:00,64.0,53.2,30.30,SE,136,1.0,5.0,68,0.00,,,0.01,Wunderground v.1.15,2013-09-16 23:08:00,
2013-09-16 19:14:00,64.9,54.5,30.30,SE,135,0.0,5.0,69,0.00,,,0.01,Wunderground v.1.15,2013-09-16 23:14:00,
2013-09-16 19:20:00,66.3,55.4,30.29,SE,135,0.0,5.0,68,0.00,,,0.01,Wunderground v.1.15,2013-09-16 23:20:00,
2013-09-16 19:26:00,66.8,55.9,30.29,SE,135,0.0,5.0,68,0.00,,,0.01,Wunderground v.1.15,2013-09-16 23:26:00,
2013-09-16 19:32:00,66.0,55.9,30.29,SE,135,0.0,5.0,70,0.00,,,0.01,Wunderground v.1.15,2013-09-16 23:32:00,
2013-09-16 19:38:00,64.9,55.3,30.29,SE,135,0.0,5.0,71,0.00,,,0.01,Wunderground v.1.15,2013-09-16 23:38:00,
2013-09-16 19:44:00,63.6,54.0,30.29,SE,135,0.0,5.0,71,0.00,,,0.01,Wunderground v.1.15,2013-09-16 23:44:00,
2013-09-16 19:49:00,61.8,53.1,30.29,SE,135,0.0,5.0,73,0.00,,,0.01,Wunderground v.1.15,2013-09-16 23:49:00,
2013-09-16 19:55:00,59.8,53.3,30.29,SE,135,0.0,5.0,79,0.00,,,0.01,Wunderground v.1.15,2013-09-16 23:55:00,
2013-09-16 20:00:00,58.3,52.5,30.29,SE,135,0.0,5.0,81,0.00,,,0.01,Wunderground v.1.15,2013-09-17 00:00:00,
2013-09-16 20:06:00,57.1,52.0,30.29,SE,135,0.0,5.0,83,0.00,,,0.01,Wunderground v.1.15,2013-09-17 00:06:00,
2013-09-16 20:12:00,56.2,52.1,30.29,SE,135,0.0,5.0,86,0.00,,,0.01,Wunderground v.1.15,2013-09-17 00:12:00,
2013-09-16 20:18:00,55.5,51.7,30.29,SE,135,0.0,5.0,87,0.00,,,0.01,Wunderground v.1.15,2013-09-17 00:18:00,
2013-09-16 20:24:00,54.9,51.4,30.29,SE,136,0.0,5.0,88,0.00,,,0.01,Wunderground v.1.15,2013-09-17 00:24:00,
2013-09-16 20:30:00,54.5,51.3,30.29,SE,135,0.0,5.0,89,0.00,,,0.01,Wunderground v.1.15,2013-09-17 00:30:00,
2013-09-16 20:36:00,54.0,50.8,30.29,SE,136,0.0,5.0,89,0.00,,,0.01,Wunderground v.1.15,2013-09-17 00:36:00,
2013-09-16 20:42:00,53.5,50.6,30.30,SE,135,0.0,5.0,90,0.00,,,0.01,Wunderground v.1.15,2013-09-17 00:42:00,
2013-09-16 20:48:00,53.3,50.7,30.30,SE,135,0.0,5.0,91,0.00,,,0.01,Wunderground v.1.15,2013-09-17 00:48:00,
2013-09-16 20:54:00,53.0,50.7,30.30,SE,135,0.0,5.0,92,0.00,,,0.01,Wunderground v.1.15,2013-09-17 00:54:00,
2013-09-16 20:59:00,52.8,50.8,30.30,SE,136,0.0,5.0,93,0.00,,,0.01,Wunderground v.1.15,2013-09-17 00:59:00,
2013-09-16 21:05:00,52.7,50.7,30.30,SE,135,0.0,5.0,93,0.00,,,0.01,Wunderground v.1.15,2013-09-17 01:05:00,
2013-09-16 21:10:00,52.3,50.3,30.30,SE,135,0.0,5.0,93,0.00,,,0.01,Wunderground v.1.15,2013-09-17 01:10:00,
2013-09-16 21:16:00,52.1,50.1,30.31,SE,131,0.0,5.0,93,0.00,,,0.01,Wunderground v.1.15,2013-09-17 01:16:00,
2013-09-16 21:21:00,52.2,50.5,30.31,ESE,122,0.0,5.0,94,0.00,,,0.01,Wunderground v.1.15,2013-09-17 01:21:00,
2013-09-16 21:27:00,52.2,50.5,30.31,ESE,122,0.0,5.0,94,0.00,,,0.01,Wunderground v.1.15,2013-09-17 01:27:00,
2013-09-16 21:33:00,52.0,50.3,30.31,ESE,123,0.0,5.0,94,0.00,,,0.01,Wunderground v.1.15,2013-09-17 01:33:00,
2013-09-16 21:39:00,51.8,50.1,30.31,ESE,123,0.0,5.0,94,0.00,,,0.01,Wunderground v.1.15,2013-09-17 01:39:00,
2013-09-16 21:45:00,51.6,50.2,30.31,ESE,123,0.0,5.0,95,0.00,,,0.01,Wunderground v.1.15,2013-09-17 01:45:00,
2013-09-16 21:50:00,51.4,50.0,30.31,ESE,123,0.0,5.0,95,0.00,,,0.01,Wunderground v.1.15,2013-09-17 01:50:00,
2013-09-16 21:56:00,51.5,50.1,30.31,ESE,122,0.0,5.0,95,0.00,,,0.01,Wunderground v.1.15,2013-09-17 01:56:00,
2013-09-16 22:01:00,51.6,50.2,30.31,ESE,123,0.0,5.0,95,0.00,,,0.01,Wunderground v.1.15,2013-09-17 02:01:00,
2013-09-16 22:06:00,51.4,50.0,30.31,ESE,122,0.0,5.0,95,0.00,,,0.01,Wunderground v.1.15,2013-09-17 02:06:00,
2013-09-16 22:12:00,51.1,49.7,30.31,ESE,121,0.0,5.0,95,0.00,,,0.01,Wunderground v.1.15,2013-09-17 02:12:00,
2013-09-16 22:18:00,50.9,49.5,30.31,ESE,115,0.0,5.0,95,0.00,,,0.01,Wunderground v.1.15,2013-09-17 02:18:00,
2013-09-16 22:24:00,51.0,49.9,30.31,ESE,109,0.0,5.0,96,0.00,,,0.01,Wunderground v.1.15,2013-09-17 02:24:00,
2013-09-16 22:30:00,51.5,50.7,30.31,ESE,110,0.0,5.0,97,0.00,,,0.01,Wunderground v.1.15,2013-09-17 02:30:00,
2013-09-16 22:36:00,51.7,50.6,30.32,ESE,113,0.0,5.0,96,0.00,,,0.01,Wunderground v.1.15,2013-09-17 02:36:00,
2013-09-16 22:42:00,51.5,50.4,30.32,ESE,113,0.0,5.0,96,0.00,,,0.01,Wunderground v.1.15,2013-09-17 02:42:00,
2013-09-16 22:48:00,51.4,50.3,30.32,ESE,117,0.0,5.0,96,0.00,,,0.01,Wunderground v.1.15,2013-09-17 02:48:00,
2013-09-16 22:54:00,51.3,50.2,30.32,ESE,117,0.0,5.0,96,0.00,,,0.01,Wunderground v.1.15,2013-09-17 02:54:00,
2013-09-16 23:00:00,51.3,50.2,30.32,NE,47,0.0,5.0,96,0.00,,,0.01,Wunderground v.1.15,2013-09-17 03:00:00,
2013-09-16 23:06:00,51.4,50.3,30.32,SE,134,0.0,5.0,96,0.00,,,0.01,Wunderground v.1.15,2013-09-17 03:06:00,
2013-09-16 23:12:00,51.3,50.2,30.32,SE,128,0.0,5.0,96,0.00,,,0.01,Wunderground v.1.15,2013-09-17 03:12:00,
2013-09-16 23:18:00,50.8,49.7,30.32,SE,128,0.0,5.0,96,0.00,,,0.01,Wunderground v.1.15,2013-09-17 03:18:00,
2013-09-16 23:24:00,50.5,49.4,30.32,NNE,18,0.0,5.0,96,0.00,,,0.01,Wunderground v.1.15,2013-09-17 03:24:00,
2013-09-16 23:30:00,51.6,50.8,30.33,NE,44,3.0,5.0,97,0.00,,,0.01,Wunderground v.1.15,2013-09-17 03:30:00,
2013-09-16 23:36:00,52.7,50.4,30.33,NE,53,4.0,5.0,92,0.00,,,0.01,Wunderground v.1.15,2013-09-17 03:36:00,
2013-09-16 23:42:00,53.0,50.1,30.33,NE,45,3.0,5.0,90,0.00,,,0.01,Wunderground v.1.15,2013-09-17 03:42:00,
2013-09-16 23:47:00,53.2,49.7,30.33,NE,49,4.0,10.0,88,0.00,,,0.01,Wunderground v.1.15,2013-09-17 03:47:00,
2013-09-16 23:53:00,53.1,49.6,30.33,NE,51,4.0,5.0,88,0.00,,,0.01,Wunderground v.1.15,2013-09-17 03:53:00,
2013-09-16 23:59:00,53.0,49.5,30.33,NE,52,4.0,6.0,88,0.00,,,0.01,Wunderground v.1.15,2013-09-17 03:59:00,